"Period start","avg(HW err(1)/warn(2) (#))","avg(Visibility (m))","avg(Weather code (#))","avg(Precip intensity (mm/h))","min(HW err(1)/warn(2) (#))","max(HW err(1)/warn(2) (#))","std(HW err(1)/warn(2) (#))","med(HW err(1)/warn(2) (#))","min(Visibility (m))","max(Visibility (m))","std(Visibility (m))","med(Visibility (m))","min(Weather code (#))","max(Weather code (#))","std(Weather code (#))","med(Weather code (#))","min(Precip intensity (mm/h))","max(Precip intensity (mm/h))","std(Precip intensity (mm/h))","med(Precip intensity (mm/h))"
2016-04-13 00:00:00,2,29432,0,0.00,2,2,0,2,15122,49850,12053,28128,0,0,0,0,0.00,0.00,0.00,0.00
2016-04-13 00:10:00,2,29566,0,0.00,2,2,0,2,18399,42868,7327,28809,0,0,0,0,0.00,0.00,0.00,0.00
2016-04-13 00:20:00,2,29510,0,0.00,2,2,0,2,17142,40034,7260,27978,0,0,0,0,0.00,0.00,0.00,0.00
2016-04-13 00:30:00,2,36663,0,0.00,2,2,0,2,22252,50000,9265,36787,0,0,0,0,0.00,0.00,0.00,0.00
2016-04-13 00:40:00,2,29114,0,0.00,2,2,0,2,18229,41739,7138,30180,0,0,0,0,0.00,0.00,0.00,0.00
2016-04-13 00:50:00,2,31405,0,0.00,2,2,0,2,20735,47998,9324,29592,0,0,0,0,0.00,0.00,0.00,0.00
2016-04-13 01:00:00,2,38988,0,0.00,2,2,0,2,24193,50000,10136,41844,0,0,0,0,0.00,0.00,0.00,0.00
2016-04-13 01:10:00,2,41304,0,0.00,2,2,0,2,28731,50000,8410,43790,0,0,0,0,0.00,0.00,0.00,0.00
2016-04-13 01:20:00,2,30913,0,0.00,2,2,0,2,17637,48265,9395,27850,0,0,0,0,0.00,0.00,0.00,0.00
2016-04-13 01:30:00,2,36826,0,0.00,2,2,0,2,18966,47319,7377,37765,0,0,0,0,0.00,0.00,0.00,0.00
2016-04-13 01:40:00,2,35960,0,0.00,2,2,0,2,23902,44539,7593,36945,0,0,0,0,0.00,0.00,0.00,0.00
2016-04-13 01:50:00,2,42248,0,0.00,2,2,0,2,28377,50000,7056,45126,0,0,0,0,0.00,0.00,0.00,0.00
2016-04-13 02:00:00,2,33661,0,0.00,2,2,0,2,17125,50000,12365,32598,0,0,0,0,0.00,0.00,0.00,0.00
2016-04-13 02:10:00,2,32368,0,0.00,2,2,0,2,21175,50000,7833,30861,0,0,0,0,0.00,0.00,0.00,0.00
2016-04-13 02:20:00,2,30296,0,0.00,2,2,0,2,23611,40641,5965,28693,0,0,0,0,0.00,0.00,0.00,0.00
2016-04-13 02:30:00,2,35956,0,0.00,2,2,0,2,23775,50000,9014,33972,0,0,0,0,0.00,0.00,0.00,0.00
2016-04-13 02:40:00,2,32093,0,0.00,2,2,0,2,13972,50000,11893,35391,0,0,0,0,0.00,0.00,0.00,0.00
2016-04-13 02:50:00,2,34528,0,0.00,2,2,0,2,23117,50000,8546,36523,0,0,0,0,0.00,0.00,0.00,0.00
2016-04-13 03:00:00,2,35276,0,0.00,2,2,0,2,15244,49696,11071,36722,0,0,0,0,0.00,0.00,0.00,0.00
2016-04-13 03:10:00,2,41621,0,0.00,2,2,0,2,27698,50000,7823,41166,0,0,0,0,0.00,0.00,0.00,0.00
2016-04-13 03:20:00,2,36136,0,0.00,2,2,0,2,22624,47745,7512,34722,0,0,0,0,0.00,0.00,0.00,0.00
2016-04-13 03:30:00,2,31907,0,0.00,2,2,0,2,21744,50000,9191,28486,0,0,0,0,0.00,0.00,0.00,0.00
2016-04-13 03:40:00,2,35123,0,0.00,2,2,0,2,24352,43520,6384,34590,0,0,0,0,0.00,0.00,0.00,0.00
2016-04-13 03:50:00,2,32126,0,0.00,2,2,0,2,19073,43064,6736,33082,0,0,0,0,0.00,0.00,0.00,0.00
2016-04-13 04:00:00,2,27729,0,0.00,2,2,0,2,19513,33632,4625,27728,0,0,0,0,0.00,0.00,0.00,0.00
2016-04-13 04:10:00,2,40508,0,0.00,2,2,0,2,26291,50000,7653,39012,0,0,0,0,0.00,0.00,0.00,0.00
2016-04-13 04:20:00,2,43107,0,0.00,2,2,0,2,34287,49551,5462,44706,0,0,0,0,0.00,0.00,0.00,0.00
2016-04-13 04:30:00,2,33199,0,0.00,2,2,0,2,21990,50000,8757,33654,0,0,0,0,0.00,0.00,0.00,0.00
2016-04-13 04:40:00,2,38115,0,0.00,2,2,0,2,27198,49705,6591,39636,0,0,0,0,0.00,0.00,0.00,0.00
2016-04-13 04:50:00,2,42474,0,0.00,2,2,0,2,32748,50000,5992,41818,0,0,0,0,0.00,0.00,0.00,0.00
2016-04-13 05:00:00,2,41053,0,0.00,2,2,0,2,31263,50000,6699,44062,0,0,0,0,0.00,0.00,0.00,0.00
2016-04-13 05:10:00,2,36648,0,0.00,2,2,0,2,21596,48325,6747,37905,0,0,0,0,0.00,0.00,0.00,0.00
2016-04-13 05:20:00,2,38344,0,0.00,2,2,0,2,26849,47737,6475,38652,0,0,0,0,0.00,0.00,0.00,0.00
2016-04-13 05:30:00,2,40781,0,0.00,2,2,0,2,34459,50000,5162,39550,0,0,0,0,0.00,0.00,0.00,0.00
2016-04-13 05:40:00,2,41457,0,0.00,2,2,0,2,30465,46313,5116,43363,0,0,0,0,0.00,0.00,0.00,0.00
2016-04-13 05:50:00,2,47301,0,0.00,2,2,0,2,37587,50000,3954,49106,0,0,0,0,0.00,0.00,0.00,0.00
2016-04-13 06:00:00,2,37988,0,0.00,2,2,0,2,31441,48923,4697,37446,0,0,0,0,0.00,0.00,0.00,0.00
2016-04-13 06:10:00,2,41819,0,0.00,2,2,0,2,29407,50000,7129,43154,0,0,0,0,0.00,0.00,0.00,0.00
2016-04-13 06:20:00,2,47688,0,0.00,2,2,0,2,38501,50000,3557,49451,0,0,0,0,0.00,0.00,0.00,0.00
2016-04-13 06:30:00,2,34720,0,0.00,2,2,0,2,25151,43557,6090,35990,0,0,0,0,0.00,0.00,0.00,0.00
2016-04-13 06:40:00,2,36081,0,0.00,2,2,0,2,23946,50000,6369,36408,0,0,0,0,0.00,0.00,0.00,0.00
2016-04-13 06:50:00,2,39201,0,0.00,2,2,0,2,31035,48369,5915,38955,0,0,0,0,0.00,0.00,0.00,0.00
2016-04-13 07:00:00,2,40549,0,0.00,2,2,0,2,30705,50000,5882,38985,0,0,0,0,0.00,0.00,0.00,0.00
2016-04-13 07:10:00,2,38754,0,0.00,2,2,0,2,31244,46438,4506,38417,0,0,0,0,0.00,0.00,0.00,0.00
2016-04-13 07:20:00,2,39330,0,0.00,2,2,0,2,25697,49969,6728,40710,0,0,0,0,0.00,0.00,0.00,0.00
2016-04-13 07:30:00,2,38102,0,0.00,2,2,0,2,27792,47458,6007,39460,0,0,0,0,0.00,0.00,0.00,0.00
2016-04-13 07:40:00,2,41813,0,0.00,2,2,0,2,27392,50000,6907,42120,0,0,0,0,0.00,0.00,0.00,0.00
2016-04-13 07:50:00,2,39421,0,0.00,2,2,0,2,24761,50000,7490,38932,0,0,0,0,0.00,0.00,0.00,0.00
2016-04-13 08:00:00,2,38733,0,0.00,2,2,0,2,20168,50000,9860,40206,0,0,0,0,0.00,0.00,0.00,0.00
2016-04-13 08:10:00,2,35276,0,0.00,2,2,0,2,22523,44266,7196,36545,0,0,0,0,0.00,0.00,0.00,0.00
2016-04-13 08:20:00,2,43089,0,0.00,2,2,0,2,32650,50000,4771,43524,0,0,0,0,0.00,0.00,0.00,0.00
2016-04-13 08:30:00,2,45529,0,0.00,2,2,0,2,32861,50000,5906,49572,0,0,0,0,0.00,0.00,0.00,0.00
2016-04-13 08:40:00,2,48620,0,0.00,2,2,0,2,41861,50000,2526,49912,0,0,0,0,0.00,0.00,0.00,0.00
2016-04-13 08:50:00,2,41206,0,0.00,2,2,0,2,28543,50000,7444,43586,0,0,0,0,0.00,0.00,0.00,0.00
2016-04-13 09:00:00,2,43484,0,0.00,2,2,0,2,36804,50000,3803,43025,0,0,0,0,0.00,0.00,0.00,0.00
2016-04-13 09:10:00,2,43355,0,0.00,2,2,0,2,34760,50000,4655,44953,0,0,0,0,0.00,0.00,0.00,0.00
2016-04-13 09:20:00,2,43004,0,0.00,2,2,0,2,30151,50000,6579,43246,0,0,0,0,0.00,0.00,0.00,0.00
2016-04-13 09:30:00,2,37428,0,0.00,2,2,0,2,24064,46540,6613,37656,0,0,0,0,0.00,0.00,0.00,0.00
2016-04-13 09:40:00,2,43893,0,0.00,2,2,0,2,35529,50000,5147,45437,0,0,0,0,0.00,0.00,0.00,0.00
2016-04-13 09:50:00,2,43011,0,0.00,2,2,0,2,32377,50000,4654,42835,0,0,0,0,0.00,0.00,0.00,0.00
2016-04-13 10:00:00,2,46698,0,0.00,2,2,0,2,39267,50000,4259,49338,0,0,0,0,0.00,0.00,0.00,0.00
2016-04-13 10:10:00,2,42693,0,0.00,2,2,0,2,28629,50000,7312,46447,0,0,0,0,0.00,0.00,0.00,0.00
2016-04-13 10:20:00,2,47356,0,0.00,2,2,0,2,39000,50000,3234,48326,0,0,0,0,0.00,0.00,0.00,0.00
2016-04-13 10:30:00,2,46972,0,0.00,2,2,0,2,40158,50000,2845,47721,0,0,0,0,0.00,0.00,0.00,0.00
2016-04-13 10:40:00,2,44352,0,0.00,2,2,0,2,38168,50000,3817,44702,0,0,0,0,0.00,0.00,0.00,0.00
2016-04-13 10:50:00,2,45392,0,0.00,2,2,0,2,41083,50000,2957,44670,0,0,0,0,0.00,0.00,0.00,0.00
2016-04-13 11:00:00,2,47062,0,0.00,2,2,0,2,41912,50000,2522,47504,0,0,0,0,0.00,0.00,0.00,0.00
2016-04-13 11:10:00,2,46611,0,0.00,2,2,0,2,40948,50000,2479,47238,0,0,0,0,0.00,0.00,0.00,0.00
2016-04-13 11:20:00,2,42491,0,0.00,2,2,0,2,38317,49077,3131,41944,0,0,0,0,0.00,0.00,0.00,0.00
2016-04-13 11:30:00,2,40700,0,0.00,2,2,0,2,34290,49913,4571,40246,0,0,0,0,0.00,0.00,0.00,0.00
2016-04-13 11:40:00,2,46107,0,0.00,2,2,0,2,38239,49991,3420,47100,0,0,0,0,0.00,0.00,0.00,0.00
2016-04-13 11:50:00,2,43485,0,0.00,2,2,0,2,36940,50000,3796,42086,0,0,0,0,0.00,0.00,0.00,0.00
2016-04-13 12:00:00,2,48114,0,0.00,2,2,0,2,45091,50000,1448,48095,0,0,0,0,0.00,0.00,0.00,0.00
2016-04-13 12:10:00,2,45889,0,0.00,2,2,0,2,37380,50000,3904,46112,0,0,0,0,0.00,0.00,0.00,0.00
2016-04-13 12:20:00,2,40954,0,0.00,2,2,0,2,34229,45602,4084,40654,0,0,0,0,0.00,0.00,0.00,0.00
2016-04-13 12:30:00,2,39450,0,0.00,2,2,0,2,31270,45337,4365,40586,0,0,0,0,0.00,0.00,0.00,0.00
2016-04-13 12:40:00,2,41794,0,0.00,2,2,0,2,34331,46530,4727,43845,0,0,0,0,0.00,0.00,0.00,0.00
2016-04-13 12:50:00,2,41957,0,0.00,2,2,0,2,39037,47146,2422,41400,0,0,0,0,0.00,0.00,0.00,0.00
2016-04-13 13:00:00,2,44006,0,0.00,2,2,0,2,40070,47325,2122,43990,0,0,0,0,0.00,0.00,0.00,0.00
2016-04-13 13:10:00,2,37260,0,0.00,2,2,0,2,29756,45406,4004,37482,0,0,0,0,0.00,0.00,0.00,0.00
2016-04-13 13:20:00,2,33909,0,0.00,2,2,0,2,27916,37160,3078,34947,0,0,0,0,0.00,0.00,0.00,0.00
2016-04-13 13:30:00,2,25222,0,0.00,2,2,0,2,19057,29929,3229,24655,0,0,0,0,0.00,0.00,0.00,0.00
2016-04-13 13:40:00,2,24038,0,0.00,2,2,0,2,21439,27389,1728,24098,0,0,0,0,0.00,0.00,0.00,0.00
2016-04-13 13:50:00,2,22058,0,0.00,2,2,0,2,19667,28603,2430,21209,0,0,0,0,0.00,0.00,0.00,0.00
2016-04-13 14:00:00,2,26021,0,0.00,2,2,0,2,20856,31366,3215,26588,0,0,0,0,0.00,0.00,0.00,0.00
2016-04-13 14:10:00,2,19483,0,0.00,2,2,0,2,17907,21312,967,19468,0,0,0,0,0.00,0.00,0.00,0.00
2016-04-13 14:20:00,2,18486,0,0.00,2,2,0,2,17076,20700,1163,18098,0,0,0,0,0.00,0.00,0.00,0.00
2016-04-13 14:30:00,2,18077,0,0.00,2,2,0,2,16624,20667,1315,17586,0,0,0,0,0.00,0.00,0.00,0.00
2016-04-13 14:40:00,2,18043,0,0.00,2,2,0,2,15080,21740,2384,17269,0,0,0,0,0.00,0.00,0.00,0.00
2016-04-13 14:50:00,2,18286,0,0.00,2,2,0,2,16679,20845,1478,17720,0,0,0,0,0.00,0.00,0.00,0.00
2016-04-13 15:00:00,2,15245,0,0.00,2,2,0,2,13370,18211,1496,14649,0,0,0,0,0.00,0.00,0.00,0.00
2016-04-13 15:10:00,2,14943,0,0.00,2,2,0,2,13179,17886,1589,14178,0,0,0,0,0.00,0.00,0.00,0.00
2016-04-13 15:20:00,2,15806,0,0.00,2,2,0,2,13503,18194,1427,15713,0,0,0,0,0.00,0.00,0.00,0.00
2016-04-13 15:30:00,2,15030,0,0.00,2,2,0,2,13282,16559,831,14960,0,0,0,0,0.00,0.00,0.00,0.00
2016-04-13 15:40:00,2,12250,0,0.00,2,2,0,2,10709,13583,1007,12314,0,0,0,0,0.00,0.00,0.00,0.00
2016-04-13 15:50:00,2,10971,0,0.00,2,2,0,2,9973,13061,786,10838,0,0,0,0,0.00,0.00,0.00,0.00
2016-04-13 16:00:00,2,11615,0,0.00,2,2,0,2,8704,12954,1058,11847,0,0,0,0,0.00,0.00,0.00,0.00
2016-04-13 16:10:00,2,12353,0,0.00,2,2,0,2,11123,13403,697,12560,0,0,0,0,0.00,0.00,0.00,0.00
2016-04-13 16:20:00,2,14823,0,0.00,2,2,0,2,12905,17380,1666,15124,0,0,0,0,0.00,0.00,0.00,0.00
2016-04-13 16:30:00,2,8899,2,0.00,2,2,0,2,6088,13356,2974,6904,0,10,4,0,0.00,0.00,0.00,0.00
2016-04-13 16:40:00,2,8599,10,0.00,2,2,0,2,7561,11770,1294,8122,10,10,0,10,0.00,0.00,0.00,0.00
2016-04-13 16:50:00,2,8760,10,0.00,2,2,0,2,7701,11656,1326,8096,10,10,0,10,0.00,0.00,0.00,0.00
2016-04-13 17:00:00,2,11769,8,0.00,2,2,0,2,9845,13272,923,11721,0,10,4,10,0.00,0.00,0.00,0.00
2016-04-13 17:10:00,2,15047,0,0.00,2,2,0,2,12111,16770,1289,15528,0,0,0,0,0.00,0.00,0.00,0.00
2016-04-13 17:20:00,2,12682,28,0.08,2,2,0,2,5989,16791,3407,14060,0,71,35,0,0.00,0.75,0.22,0.00
2016-04-13 17:30:00,2,20579,15,0.02,2,2,0,2,6420,27312,7333,23934,0,71,25,0,0.00,0.10,0.03,0.00
2016-04-13 17:40:00,2,20060,15,0.01,2,2,0,2,16638,25051,2608,19041,0,77,30,0,0.00,0.05,0.02,0.00
2016-04-13 17:50:00,2,20827,0,0.00,2,2,0,2,19353,25862,1798,20324,0,0,0,0,0.00,0.00,0.00,0.00
2016-04-13 18:00:00,2,20105,0,0.00,2,2,0,2,18492,22567,1544,19423,0,0,0,0,0.00,0.00,0.00,0.00
2016-04-13 18:10:00,2,20344,0,0.00,2,2,0,2,16904,22758,1753,19916,0,0,0,0,0.00,0.00,0.00,0.00
2016-04-13 18:20:00,2,21221,0,0.00,2,2,0,2,16200,24847,2509,21538,0,0,0,0,0.00,0.00,0.00,0.00
2016-04-13 18:30:00,2,21583,0,0.00,2,2,0,2,19908,24036,1196,21491,0,0,0,0,0.00,0.00,0.00,0.00
2016-04-13 18:40:00,2,20489,0,0.00,2,2,0,2,17903,22570,1451,20568,0,0,0,0,0.00,0.00,0.00,0.00
2016-04-13 18:50:00,2,20537,0,0.00,2,2,0,2,18218,22478,1404,21048,0,0,0,0,0.00,0.00,0.00,0.00
2016-04-13 19:00:00,2,11928,1,0.00,2,2,0,2,4180,18648,5724,14914,0,10,3,0,0.00,0.00,0.00,0.00
2016-04-13 19:10:00,2,6881,10,0.00,2,2,0,2,4507,9486,1692,6834,10,10,0,10,0.00,0.00,0.00,0.00
2016-04-13 19:20:00,2,6156,10,0.00,2,2,0,2,3593,9617,2374,5620,10,10,0,10,0.00,0.00,0.00,0.00
2016-04-13 19:30:00,2,7349,10,0.00,2,2,0,2,3497,9678,2103,8106,10,10,0,10,0.00,0.00,0.00,0.00
2016-04-13 19:40:00,2,5041,10,0.00,2,2,0,2,4447,5677,292,5021,10,10,0,10,0.00,0.00,0.00,0.00
2016-04-13 19:50:00,2,4684,10,0.00,2,2,0,2,3688,8457,1324,4219,10,10,0,10,0.00,0.00,0.00,0.00
2016-04-13 20:00:00,2,5772,34,0.04,2,2,0,2,2748,11066,2613,5534,10,71,30,10,0.00,0.40,0.12,0.00
2016-04-13 20:10:00,2,14618,71,0.08,2,2,0,2,4888,21184,4778,14668,71,71,0,71,0.00,0.70,0.21,0.00
2016-04-13 20:20:00,2,16992,0,0.00,2,2,0,2,13843,19913,2106,17666,0,0,0,0,0.00,0.00,0.00,0.00
2016-04-13 20:30:00,2,12598,2,0.00,2,2,0,2,1173,26032,8912,13008,0,10,4,0,0.00,0.00,0.00,0.00
2016-04-13 20:40:00,2,11311,22,0.02,2,2,0,2,5105,17883,4348,9426,10,71,24,10,0.00,0.20,0.06,0.00
2016-04-13 20:50:00,2,23985,8,0.00,2,2,0,2,12926,33723,6329,24039,0,71,21,0,0.00,0.00,0.00,0.00
2016-04-13 21:00:00,2,35680,0,0.00,2,2,0,2,27553,43786,5427,34812,0,0,0,0,0.00,0.00,0.00,0.00
2016-04-13 21:10:00,2,17884,0,0.00,2,2,0,2,9367,32275,7369,15656,0,0,0,0,0.00,0.00,0.00,0.00
2016-04-13 21:20:00,2,9001,1,0.00,2,2,0,2,4959,11119,1735,9264,0,10,3,0,0.00,0.00,0.00,0.00
2016-04-13 21:30:00,2,15178,10,0.00,2,2,0,2,7411,25597,6349,15286,10,10,0,10,0.00,0.00,0.00,0.00
2016-04-13 21:40:00,2,8068,4,0.00,2,2,0,2,5738,9597,1191,8134,0,10,5,0,0.00,0.00,0.00,0.00
2016-04-13 21:50:00,2,16271,10,0.00,2,2,0,2,8533,25918,5638,16824,10,10,0,10,0.00,0.00,0.00,0.00
2016-04-13 22:00:00,2,27353,0,0.00,2,2,0,2,18759,34240,4061,26968,0,0,0,0,0.00,0.00,0.00,0.00
2016-04-13 22:10:00,2,25094,0,0.00,2,2,0,2,18804,29565,3214,26346,0,0,0,0,0.00,0.00,0.00,0.00
2016-04-13 22:20:00,2,27266,0,0.00,2,2,0,2,23036,37221,4405,25352,0,0,0,0,0.00,0.00,0.00,0.00
2016-04-13 22:30:00,2,33984,0,0.00,2,2,0,2,21072,44684,6941,33007,0,0,0,0,0.00,0.00,0.00,0.00
2016-04-13 22:40:00,2,29161,0,0.00,2,2,0,2,17659,39666,5861,28006,0,0,0,0,0.00,0.00,0.00,0.00
2016-04-13 22:50:00,2,26763,0,0.00,2,2,0,2,18332,46702,7479,23842,0,0,0,0,0.00,0.00,0.00,0.00
2016-04-13 23:00:00,2,32071,0,0.00,2,2,0,2,21931,40219,4864,31448,0,0,0,0,0.00,0.00,0.00,0.00
2016-04-13 23:10:00,2,35588,0,0.00,2,2,0,2,20052,43241,6623,35718,0,0,0,0,0.00,0.00,0.00,0.00
2016-04-13 23:20:00,2,38539,0,0.00,2,2,0,2,26806,46747,6255,38097,0,0,0,0,0.00,0.00,0.00,0.00
2016-04-13 23:30:00,2,30976,0,0.00,2,2,0,2,17249,46315,9571,31284,0,0,0,0,0.00,0.00,0.00,0.00
2016-04-13 23:40:00,2,35487,0,0.00,2,2,0,2,24723,47804,7908,36228,0,0,0,0,0.00,0.00,0.00,0.00
2016-04-13 23:50:00,2,28456,0,0.00,2,2,0,2,20370,41372,8047,24617,0,0,0,0,0.00,0.00,0.00,0.00
